TimeEDT,TemperatureF,Dew PointF,Humidity,Sea Level PressureIn,VisibilityMPH,Wind Direction,Wind SpeedMPH,Gust SpeedMPH,PrecipitationIn,Events,Conditions,WindDirDegrees,DateUTC
12:14 AM,42.8,41.0,93,30.04,10.0,ENE,6.9,-,N/A,,Overcast,70,2013-04-18 04:14:00
12:34 AM,42.8,41.0,93,30.02,10.0,East,9.2,-,N/A,,Overcast,90,2013-04-18 04:34:00
12:53 AM,43.2,41.4,93,29.99,10.0,East,11.5,-,N/A,,Overcast,90,2013-04-18 04:53:00
1:13 AM,43.2,41.4,93,29.98,10.0,East,6.9,-,N/A,,Overcast,80,2013-04-18 05:13:00
1:34 AM,43.0,41.4,94,29.97,10.0,ENE,5.8,-,N/A,,Overcast,60,2013-04-18 05:34:00
1:53 AM,43.2,41.9,95,29.95,10.0,NE,8.1,-,N/A,,Overcast,50,2013-04-18 05:53:00
2:14 AM,43.7,41.9,93,29.95,10.0,NE,5.8,-,N/A,,Light Drizzle,50,2013-04-18 06:14:00
2:34 AM,43.7,41.9,93,29.95,10.0,ENE,6.9,-,N/A,Rain,Light Rain,60,2013-04-18 06:34:00
2:53 AM,43.7,42.1,94,29.94,10.0,ENE,5.8,-,0.01,Rain,Light Rain,60,2013-04-18 06:53:00
3:14 AM,43.3,42.1,95,29.91,10.0,ENE,6.9,-,N/A,Rain,Light Rain,60,2013-04-18 07:14:00
3:34 AM,43.0,41.9,96,29.89,7.0,NE,8.1,-,0.02,Rain,Rain,50,2013-04-18 07:34:00
3:53 AM,43.0,41.9,96,29.89,10.0,ENE,5.8,-,0.02,Rain,Light Rain,60,2013-04-18 07:53:00
4:14 AM,43.0,41.9,96,29.88,7.0,NE,8.1,-,0.01,Rain,Rain,50,2013-04-18 08:14:00
4:34 AM,43.0,42.1,97,29.84,4.0,NE,11.5,-,0.08,Rain,Heavy Rain,50,2013-04-18 08:34:00
4:53 AM,43.0,42.1,97,29.85,4.0,ENE,8.1,-,0.16,Rain,Heavy Rain,70,2013-04-18 08:53:00
5:14 AM,42.8,41.9,97,29.84,3.0,ENE,9.2,-,0.07,Rain,Heavy Rain,60,2013-04-18 09:14:00
5:33 AM,42.8,41.9,97,29.85,4.0,East,5.8,-,0.14,Rain,Rain,100,2013-04-18 09:33:00
5:53 AM,42.8,41.9,97,29.82,4.0,ENE,8.1,-,0.23,Rain,Rain,70,2013-04-18 09:53:00
6:14 AM,42.6,41.9,97,29.80,4.0,East,4.6,-,0.04,Rain,Rain,80,2013-04-18 10:14:00
6:33 AM,42.4,41.9,98,29.79,3.0,ENE,5.8,-,0.12,Rain,Rain,70,2013-04-18 10:33:00
6:53 AM,42.6,41.9,97,29.76,4.0,ENE,9.2,-,0.16,Rain,Rain,70,2013-04-18 10:53:00
7:14 AM,42.8,42.3,98,29.77,10.0,ENE,5.8,-,N/A,Rain,Light Rain,70,2013-04-18 11:14:00
7:33 AM,43.0,42.4,98,29.75,4.0,East,8.1,-,0.05,Rain,Rain,80,2013-04-18 11:33:00
7:53 AM,43.2,42.8,99,29.71,10.0,ENE,6.9,-,0.05,,Overcast,60,2013-04-18 11:53:00
8:07 AM,43.5,43.0,98,29.72,10.0,NE,4.6,-,N/A,,Overcast,50,2013-04-18 12:07:00
8:30 AM,44.1,43.7,99,29.77,10.0,NNW,5.8,24.2,0.01,Rain,Light Rain,330,2013-04-18 12:30:00
8:57 AM,-9999,-9999,N/A,-9999,7.0,ESE,3.5,-,N/A,Rain,Light Rain,120,2013-04-18 12:57:00
9:04 AM,44.6,43.9,97,29.72,7.0,Calm,Calm,-,N/A,,Overcast,0,2013-04-18 13:04:00
9:14 AM,44.8,44.4,99,29.70,5.0,East,3.5,-,N/A,,Overcast,90,2013-04-18 13:14:00
9:33 AM,46.6,46.2,99,29.68,7.0,ESE,6.9,-,N/A,,Overcast,120,2013-04-18 13:33:00
9:54 AM,48.2,46.9,95,29.67,10.0,ESE,5.8,-,N/A,,Overcast,110,2013-04-18 13:54:00
10:13 AM,48.2,46.9,95,29.64,7.0,ESE,5.8,-,N/A,,Overcast,110,2013-04-18 14:13:00
10:34 AM,49.1,47.7,95,29.63,7.0,East,5.8,-,N/A,,Overcast,100,2013-04-18 14:34:00
10:54 AM,49.1,48.2,97,29.62,4.0,ESE,4.6,-,N/A,,Overcast,110,2013-04-18 14:54:00
11:13 AM,49.6,48.7,97,29.61,4.0,ESE,4.6,-,N/A,Rain,Light Rain,110,2013-04-18 15:13:00
11:34 AM,50.9,50.0,97,29.58,4.0,ESE,3.5,-,N/A,,Overcast,120,2013-04-18 15:34:00
11:54 AM,53.2,52.5,97,29.57,4.0,SE,4.6,-,N/A,,Overcast,140,2013-04-18 15:54:00
12:13 PM,56.1,55.0,96,29.55,4.0,SSE,6.9,-,N/A,,Mostly Cloudy,150,2013-04-18 16:13:00
12:34 PM,58.1,55.9,93,29.53,7.0,SSE,6.9,-,N/A,,Mostly Cloudy,150,2013-04-18 16:34:00
12:54 PM,58.6,56.5,93,29.52,7.0,SE,5.8,-,N/A,,Overcast,140,2013-04-18 16:54:00
1:13 PM,57.9,55.8,92,29.52,7.0,Calm,Calm,-,N/A,,Overcast,0,2013-04-18 17:13:00
1:34 PM,53.2,52.0,95,29.54,4.0,NW,9.2,-,0.01,Rain,Rain,310,2013-04-18 17:34:00
1:54 PM,52.5,51.6,97,29.53,7.0,Calm,Calm,-,0.01,,Light Drizzle,0,2013-04-18 17:54:00
2:13 PM,53.4,52.0,95,29.51,7.0,Calm,Calm,-,N/A,Rain,Light Rain,0,2013-04-18 18:13:00
2:34 PM,54.9,52.9,93,29.54,10.0,Calm,Calm,-,N/A,,Scattered Clouds,0,2013-04-18 18:34:00
2:54 PM,56.5,54.7,94,29.54,7.0,West,4.6,-,N/A,,Drizzle,260,2013-04-18 18:54:00
3:14 PM,58.6,56.8,94,29.54,7.0,SW,6.9,-,N/A,Rain,Light Rain,230,2013-04-18 19:14:00
3:34 PM,59.2,57.4,94,29.56,7.0,WSW,9.2,-,N/A,Rain,Rain,240,2013-04-18 19:34:00
3:54 PM,60.3,58.1,93,29.55,7.0,WSW,10.4,18.4,0.01,Rain,Light Rain,240,2013-04-18 19:54:00
4:34 PM,61.3,59.4,93,29.57,10.0,SW,6.9,-,N/A,,Light Drizzle,230,2013-04-18 20:34:00
4:53 PM,61.2,59.4,94,29.56,10.0,SSW,6.9,-,N/A,,Light Drizzle,200,2013-04-18 20:53:00
5:14 PM,61.3,59.9,95,29.57,7.0,SW,6.9,-,N/A,Rain,Light Rain,220,2013-04-18 21:14:00
5:34 PM,63.0,60.8,93,29.55,10.0,SW,6.9,-,N/A,,Mostly Cloudy,220,2013-04-18 21:34:00
5:54 PM,63.1,60.3,90,29.54,10.0,SSW,8.1,-,N/A,,Mostly Cloudy,210,2013-04-18 21:54:00
6:14 PM,63.1,60.3,90,29.55,10.0,WSW,8.1,-,N/A,,Light Drizzle,250,2013-04-18 22:14:00
6:33 PM,63.0,60.8,93,29.57,10.0,SW,5.8,-,N/A,Rain,Light Rain,220,2013-04-18 22:33:00
6:54 PM,61.7,60.3,95,29.56,10.0,SW,3.5,-,0.02,Rain,Light Rain,220,2013-04-18 22:54:00
7:14 PM,61.3,60.3,96,29.54,10.0,SSE,3.5,-,N/A,Rain,Light Rain,160,2013-04-18 23:14:00
7:34 PM,61.5,60.3,96,29.56,10.0,South,4.6,-,N/A,,Overcast,180,2013-04-18 23:34:00
7:54 PM,62.1,60.8,96,29.55,10.0,South,8.1,-,N/A,,Overcast,170,2013-04-18 23:54:00
8:14 PM,62.1,60.3,94,29.54,10.0,South,8.1,-,N/A,,Overcast,180,2013-04-19 00:14:00
8:34 PM,61.9,59.9,93,29.49,10.0,SE,13.8,-,N/A,,Overcast,140,2013-04-19 00:34:00
8:54 PM,62.2,59.4,90,29.46,10.0,SSE,13.8,24.2,N/A,,Overcast,150,2013-04-19 00:54:00
9:14 PM,62.2,59.0,89,29.45,10.0,SSE,12.7,21.9,N/A,,Mostly Cloudy,160,2013-04-19 01:14:00
9:34 PM,61.9,58.5,89,29.46,10.0,SSW,12.7,19.6,N/A,,Mostly Cloudy,200,2013-04-19 01:34:00
9:54 PM,61.9,58.1,87,29.50,10.0,SSW,9.2,16.1,N/A,,Scattered Clouds,210,2013-04-19 01:54:00
10:14 PM,61.7,57.7,87,29.46,10.0,SSW,4.6,-,N/A,,Clear,210,2013-04-19 02:14:00
10:34 PM,61.3,57.7,88,29.51,10.0,WSW,10.4,-,N/A,,Clear,250,2013-04-19 02:34:00
10:54 PM,61.5,57.2,86,29.51,10.0,WSW,5.8,-,N/A,,Scattered Clouds,250,2013-04-19 02:54:00
11:34 PM,60.8,56.7,86,29.48,10.0,South,6.9,-,N/A,,Mostly Cloudy,170,2013-04-19 03:34:00
11:54 PM,61.3,56.5,84,29.47,10.0,SSE,9.2,-,N/A,,Scattered Clouds,160,2013-04-19 03:54:00